Weather Roundup
Issued by NWS Chicago, IL

Home | Current Version | Previous Version | Graphics & Text | Print | Product List | Glossary On
Versions: 1 2 3 4 5 6 7 8 9 10 11 12 13 14 15 16 17 18 19 20 21 22 23 24 25 26 27 28 29 30 31 32 33 34 35 36 37 38 39 40 41 42 43 44 45 46 47 48 49 50
000
NZUS59 KLOT 221703
HRRLOT

CHICAGO AREA WEATHER ROUNDUP
NATIONAL WEATHER SERVICE CHICAGO/ROMEOVILLE IL
1200 PM CDT SUN APR 22 2018

NOTE: "FAIR" INDICATES FEW OR NO CLOUDS BELOW 12,000 FEET WITH NO
SIGNIFICANT WEATHER AND/OR OBSTRUCTIONS TO VISIBILITY.

* THESE STATIONS ARE NOT UNDER NWS QUALITY CONTROL. THEY ALSO MAY NOT
  REPORT WEATHER SUCH AS PRECIPITATION OR FOG.

ILZ005-006-012>014-019>023-221800-
NORTHEAST ILLINOIS

CITY           SKY/WX    TMP DP  RH WIND       PRES   REMARKS
OHARE          PTSUNNY   58  24  27 E15       30.33F
MIDWAY         PTSUNNY   57  24  28 E16       30.34F
AURORA           N/A     61  25  25 E15G23    30.31F
LANSING*         N/A     59  33  38 NE9       30.32F
JOLIET*          N/A     63  28  27 E15       30.31F
WAUKEGAN         N/A     53  24  32 E10       30.36F
DUPAGE AIRPORT   N/A     58  25  28 E17G24    30.32F
WHEELING         N/A     55  22  27 E9        30.37F
KANKAKEE*        N/A     62  16  16 E13       30.29F
MORRIS*          N/A     62  23  22 E16       30.29F
LEWIS AIRPORT*   N/A     61  30  30 E15       30.31F
NORTHERLY ISL    N/A     49  30  48 MISG        N/A
$$

WIZ051-052-058>065-066-070>072-221800-
SOUTHEAST WISCONSIN

CITY           SKY/WX    TMP DP  RH WIND       PRES   REMARKS
MILWAUKEE      PTSUNNY   49  28  44 E8        30.40F
KENOSHA*         N/A     55  24  30 E12       30.37F
RACINE*          N/A     51  29  42 VRB5      30.39F
BURLINGTON       N/A     59  27  30 E14G21    30.35F
WAUKESHA       SUNNY     54  21  28 E7        30.38F
WEST BEND        N/A     55  21  26 SE7       30.38F
$$

INZ001>003-010>013-019-020-221800-
NORTHWEST INDIANA

CITY           SKY/WX    TMP DP  RH WIND       PRES   REMARKS
GARY*          PTSUNNY   55  25  30 NE12      30.34F
MICHIGAN CITY* NOT AVBL
RENSSELAER*    NOT AVBL
VALPARAISO       N/A     62  24  23 E16G23    30.32F
$$

LMZ740>746-221800-
SOUTHERN LAKE MICHIGAN

STATION/POSITION TIME  SKY/WX   TEMP WIND        PRES    VSBY
                                AIR  DIR/SP/G
                 (UTC)          (F)  (DEG/KT/KT) (MB)    (MI)
HARRISON CRIB    1640            43   30/  9/ 10   N/A
BURNHAM HARBOR   1700            48   20/  9/ 10   N/A
CALUMET HARBOR   1630            48   10/ 10/ 13 1027.1F
BURNS HARBOR     1640            45   30/ 16/ 17 1027.4F
MICHIGAN CITY    1640            56   50/ 16/ 18   N/A
$$

ABBREVIATIONS USED IN REMARKS
   TC - TEMPERATURE IN CELSIUS
  WCI - WIND CHILL INDEX
   HX - HEAT INDEX
  VSB - VISIBILITY
$$



USA.gov is the U.S. government's official web portal to all federal, state and local government web resources and services.